GW6351 Weather Reports


Display with metric or nautical units.
time (UTC)temp
F
wind
direction
speed
MPH
gust
MPH
rain 1hr
in
rain 24hr
in
rain mn
in
humidity
%
barometer
mb
20260507025010 51 287 9.0 19.0 0.00 0.00 0.00 54 1013.3
20260507024532 51 194 12.0 24.0 0.00 0.00 0.00 53 1013.4
20260507024009 51 130 9.0 24.0 0.00 0.00 0.00 55 1013.2
20260507023516 51 181 7.0 18.0 0.00 0.00 0.00 55 1013.2
20260507023040 51 223 9.0 19.0 0.00 0.00 0.00 54 1013.1
20260507022516 51 205 11.0 23.0 0.00 0.00 0.00 53 1013.3
20260507022013 51 246 10.0 23.0 0.00 0.00 0.00 53 1013.3
20260507021533 51 222 10.0 27.0 0.00 0.00 0.00 53 1013.3
20260507021012 52 228 12.0 27.0 0.00 0.00 0.00 53 1013.2
20260507020510 52 251 12.0 25.0 0.00 0.00 0.00 52 1013.3
20260507020034 52 228 10.0 30.0 0.00 0.00 0.00 50 1013.6
20260507015511 52 138 10.0 30.0 0.00 0.00 0.00 51 1013.3
20260507015012 53 236 9.0 30.0 0.00 0.00 0.00 51 1013.6
20260507014542 53 212 10.0 30.0 0.00 0.00 0.00 50 1013.7
20260507014013 53 219 12.0 22.0 0.00 0.00 0.00 50 1013.5
20260507013513 53 262 8.0 20.0 0.00 0.00 0.00 50 1013.4
20260507013032 53 247 10.0 20.0 0.00 0.00 0.00 49 1013.3
20260507012510 53 300 11.0 20.0 0.00 0.00 0.00 49 1013.3
20260507012011 53 188 7.0 25.0 0.00 0.00 0.00 50 1013.0
20260507011532 53 182 9.0 25.0 0.00 0.00 0.00 48 1013.1
20260507011012 53 171 10.0 20.0 0.00 0.00 0.00 49 1012.9
20260507010515 53 142 11.0 21.0 0.00 0.00 0.00 48 1013.3
20260507010030 53 258 10.0 29.0 0.00 0.00 0.00 47 1013.1
20260507005511 53 207 12.0 29.0 0.00 0.00 0.00 47 1013.2
20260507005013 53 192 12.0 23.0 0.00 0.00 0.00 47 1013.2
20260507004541 54 263 12.0 24.0 0.00 0.00 0.00 47 1013.4
20260507004011 54 275 11.0 23.0 0.00 0.00 0.00 47 1013.1
20260507003511 54 248 11.0 23.0 0.00 0.00 0.00 48 1013.2
20260507003034 54 177 13.0 24.0 0.00 0.00 0.00 48 1013.2
20260507002512 54 217 11.0 23.0 0.00 0.00 0.00 48 1013.2
20260507002011 54 285 9.0 25.0 0.00 0.00 0.00 48 1013.1
20260507001531 54 174 7.0 25.0 0.00 0.00 0.00 49 1013.3
20260507001011 54 264 13.0 25.0 0.00 0.00 0.00 49 1013.4
20260507000511 54 144 10.0 25.0 0.00 0.00 0.00 48 1013.3
20260507000038 54 229 10.0 23.0 0.00 0.00 0.00 49 1013.3
20260506235512 54 202 9.0 23.0 0.00 0.00 0.00 50 1013.3
20260506235012 54 241 12.0 20.0 0.00 0.00 0.00 51 1013.7
20260506234536 54 225 11.0 24.0 0.00 0.00 0.00 51 1013.4
20260506234011 54 128 11.0 31.0 0.00 0.00 0.00 50 1013.4
20260506233512 54 242 12.0 31.0 0.00 0.00 0.00 52 1013.4
20260506233032 54 232 12.0 25.0 0.00 0.00 0.00 53 1013.6
20260506232513 54 219 11.0 25.0 0.00 0.00 0.00 53 1013.4
20260506232011 55 193 16.0 25.0 0.00 0.00 0.00 52 1013.4
20260506231534 55 251 11.0 20.0 0.00 0.00 0.00 51 1013.2
20260506231013 55 119 12.0 20.0 0.00 0.00 0.00 51 1013.4
20260506230515 55 207 7.0 20.0 0.00 0.00 0.00 53 1013.4
20260506230050 56 191 9.0 22.0 0.00 0.00 0.00 50 1013.5
20260506225511 56 248 11.0 23.0 0.00 0.00 0.00 50 1013.7
20260506225013 56 197 11.0 23.0 0.00 0.00 0.00 51 1013.5
20260506224532 56 141 12.0 32.0 0.00 0.00 0.00 51 1013.7
20260506224012 56 215 11.0 24.0 0.00 0.00 0.00 50 1013.9
20260506223513 56 173 13.0 22.0 0.00 0.00 0.00 50 1014.1
20260506223046 57 213 10.0 22.0 0.00 0.00 0.00 50 1014.0
20260506222514 57 192 13.0 24.0 0.00 0.00 0.00 47 1014.0
20260506222013 57 229 9.0 22.0 0.00 0.00 0.00 48 1014.2
20260506221532 57 246 10.0 22.0 0.00 0.00 0.00 47 1014.1
20260506221017 57 205 8.0 19.0 0.00 0.00 0.00 48 1014.2
20260506220516 57 143 13.0 19.0 0.00 0.00 0.00 46 1014.4
20260506220033 58 158 8.0 20.0 0.00 0.00 0.00 46 1014.4
20260506215516 57 250 9.0 21.0 0.00 0.00 0.00 48 1014.4
20260506215013 57 180 9.0 21.0 0.00 0.00 0.00 46 1014.3
20260506214531 58 134 8.0 19.0 0.00 0.00 0.00 48 1014.4
20260506214014 57 154 8.0 21.0 0.00 0.00 0.00 47 1014.3
20260506213511 57 164 8.0 25.0 0.00 0.00 0.00 49 1014.2
20260506213045 57 198 13.0 25.0 0.00 0.00 0.00 49 1014.5
20260506212513 57 129 10.0 22.0 0.00 0.00 0.00 50 1014.4
20260506212010 57 235 9.0 22.0 0.00 0.00 0.00 50 1014.6
20260506211539 58 160 8.0 22.0 0.00 0.00 0.00 48 1014.4
20260506211014 58 119 9.0 22.0 0.00 0.00 0.00 45 1014.5
20260506210511 58 198 8.0 21.0 0.00 0.00 0.00 43 1014.3
20260506210037 59 149 11.0 20.0 0.00 0.00 0.00 44 1014.5
20260506205511 58 208 9.0 22.0 0.00 0.00 0.00 44 1014.5
20260506205013 58 174 9.0 19.0 0.00 0.00 0.00 46 1014.3
20260506204545 58 215 7.0 20.0 0.00 0.00 0.00 47 1014.4
20260506204013 59 194 10.0 20.0 0.00 0.00 0.00 45 1014.3
20260506203513 59 200 8.0 17.0 0.00 0.00 0.00 46 1014.3
20260506203040 59 223 7.0 19.0 0.00 0.00 0.00 45 1014.3
20260506202511 59 189 8.0 19.0 0.00 0.00 0.00 43 1014.2
20260506202011 60 245 6.0 19.0 0.00 0.00 0.00 45 1014.3
20260506201551 60 200 8.0 18.0 0.00 0.00 0.00 44 1014.3
20260506201012 59 120 7.0 19.0 0.00 0.00 0.00 44 1014.3
20260506200513 59 233 8.0 15.0 0.00 0.00 0.00 47 1014.2
20260506200040 60 251 7.0 18.0 0.00 0.00 0.00 45 1014.2
20260506195513 60 250 8.0 16.0 0.00 0.00 0.00 43 1014.2
20260506195011 60 225 7.0 15.0 0.00 0.00 0.00 44 1014.2
20260506194552 60 215 8.0 12.0 0.00 0.00 0.00 45 1014.2
20260506194013 60 232 5.0 14.0 0.00 0.00 0.00 45 1014.3
20260506193514 60 236 6.0 11.0 0.00 0.00 0.00 44 1014.7
20260506193040 60 220 6.0 15.0 0.00 0.00 0.00 44 1014.6
20260506192514 59 165 8.0 15.0 0.00 0.00 0.00 43 1014.6
20260506192011 59 132 7.0 15.0 0.00 0.00 0.00 45 1014.7
20260506191545 59 269 7.0 16.0 0.00 0.00 0.00 45 1014.3
20260506191016 59 213 8.0 16.0 0.00 0.00 0.00 45 1014.1
20260506190520 59 284 7.0 15.0 0.00 0.00 0.00 44 1014.2
20260506190044 60 139 5.0 14.0 0.00 0.00 0.00 44 1014.2
20260506185514 61 298 5.0 15.0 0.00 0.00 0.00 43 1014.4
20260506185014 60 207 7.0 15.0 0.00 0.00 0.00 44 1014.1
20260506184540 60 107 5.0 15.0 0.00 0.00 0.00 45 1014.1
20260506184017 60 110 6.0 16.0 0.00 0.00 0.00 45 1014.2
20260506183517 60 202 6.0 16.0 0.00 0.00 0.00 45 1014.1
20260506183052 60 104 4.0 13.0 0.00 0.00 0.00 45 1014.1
20260506182514 60 181 5.0 13.0 0.00 0.00 0.00 45 1014.1
20260506182015 60 267 3.0 12.0 0.00 0.00 0.00 44 1014.3
20260506181538 59 290 5.0 13.0 0.00 0.00 0.00 44 1014.3
20260506181017 59 178 5.0 17.0 0.00 0.00 0.00 46 1014.2
20260506180516 58 198 4.0 14.0 0.00 0.00 0.00 49 1014.4
20260506180040 58 182 8.0 14.0 0.00 0.00 0.00 49 1014.3
20260506175519 58 241 7.0 15.0 0.00 0.00 0.00 49 1014.2
20260506175014 58 267 8.0 20.0 0.00 0.00 0.00 48 1014.3
20260506174539 58 263 8.0 20.0 0.00 0.00 0.00 48 1013.9
20260506174014 59 225 5.0 16.0 0.00 0.00 0.00 47 1014.1
20260506173515 59 222 7.0 15.0 0.00 0.00 0.00 46 1014.1
20260506173050 59 196 7.0 16.0 0.00 0.00 0.00 45 1014.1
20260506172513 59 246 7.0 12.0 0.00 0.00 0.00 44 1014.1
20260506172015 59 218 4.0 9.0 0.00 0.00 0.00 45 1014.2
20260506171541 59 267 5.0 9.0 0.00 0.00 0.00 48 1014.1
20260506171019 58 233 5.0 8.0 0.00 0.00 0.00 48 1013.9
20260506170519 57 225 5.0 9.0 0.00 0.00 0.00 53 1014.1
20260506170100 58 248 4.0 10.0 0.00 0.00 0.00 52 1014.1
20260506165514 58 276 4.0 10.0 0.00 0.00 0.00 53 1014.1
20260506165014 58 251 5.0 12.0 0.00 0.00 0.00 52 1013.9
20260506164538 58 267 5.0 12.0 0.00 0.00 0.00 49 1013.7
20260506164021 58 227 5.0 8.0 0.00 0.00 0.00 47 1013.7
20260506163517 57 254 5.0 16.0 0.00 0.00 0.00 47 1013.6
20260506163041 56 252 5.0 12.0 0.00 0.00 0.00 45 1013.9
20260506162516 55 223 5.0 11.0 0.00 0.00 0.00 52 1013.9
20260506162016 55 244 5.0 10.0 0.00 0.00 0.00 55 1013.8
20260506161540 55 295 4.0 8.0 0.00 0.00 0.00 61 1013.8
20260506161013 55 225 3.0 9.0 0.00 0.00 0.00 56 1013.7
20260506160515 54 242 4.0 9.0 0.00 0.00 0.00 59 1014.0
20260506160046 54 236 6.0 9.0 0.00 0.00 0.00 58 1013.9
20260506155514 55 271 4.0 12.0 0.00 0.00 0.00 64 1014.0
20260506155013 54 239 6.0 15.0 0.00 0.00 0.00 52 1013.9
20260506154543 53 289 6.0 15.0 0.00 0.00 0.00 55 1013.9
20260506154016 53 232 4.0 11.0 0.00 0.00 0.00 60 1014.0
20260506153515 53 236 6.0 12.0 0.00 0.00 0.00 63 1013.9
20260506153045 52 279 5.0 8.0 0.00 0.00 0.00 59 1013.8
20260506152518 52 248 4.0 10.0 0.00 0.00 0.00 64 1013.8
20260506152016 54 272 5.0 12.0 0.00 0.00 0.00 58 1013.8
20260506151546 54 255 5.0 12.0 0.00 0.00 0.00 49 1013.7
20260506151017 54 277 5.0 15.0 0.00 0.00 0.00 51 1013.6
20260506150513 53 265 8.0 16.0 0.00 0.00 0.00 52 1013.7
20260506150046 51 258 5.0 10.0 0.00 0.00 0.00 63 1013.7
20260506145517 51 275 4.0 9.0 0.00 0.00 0.00 63 1013.7
20260506145018 51 243 5.0 9.0 0.00 0.00 0.00 63 1013.6
20260506144558 52 252 3.0 9.0 0.00 0.00 0.00 61 1013.6
20260506144014 52 211 5.0 8.0 0.00 0.00 0.00 59 1013.5
20260506143514 51 203 5.0 12.0 0.00 0.00 0.00 59 1013.4
20260506143041 51 227 8.0 12.0 0.00 0.00 0.00 59 1013.4
20260506142520 51 223 7.0 11.0 0.00 0.00 0.00 61 1013.4
20260506142019 52 265 5.0 10.0 0.00 0.00 0.00 59 1013.3
20260506141538 51 225 4.0 12.0 0.00 0.00 0.00 58 1013.3
20260506141019 51 223 3.0 7.0 0.00 0.00 0.00 61 1013.2
20260506140517 51 240 4.0 7.0 0.00 0.00 0.00 60 1013.2
20260506140043 51 235 3.0 12.0 0.00 0.00 0.00 59 1013.4
20260506135516 52 248 4.0 12.0 0.00 0.00 0.00 54 1013.2
20260506135014 50 238 2.0 8.0 0.00 0.00 0.00 62 1013.1
20260506134556 51 260 4.0 8.0 0.00 0.00 0.00 60 1013.2
20260506134017 52 252 4.0 12.0 0.00 0.00 0.00 54 1013.2
20260506133519 53 186 6.0 12.0 0.00 0.00 0.00 53 1013.2
20260506133044 52 265 6.0 10.0 0.00 0.00 0.00 52 1013.2
20260506132520 53 233 3.0 14.0 0.00 0.00 0.00 53 1013.1
20260506132018 54 246 7.0 14.0 0.00 0.00 0.00 43 1013.0
20260506131545 53 158 7.0 14.0 0.00 0.00 0.00 46 1013.0
20260506131014 53 246 5.0 12.0 0.00 0.00 0.00 48 1013.0
20260506130520 53 188 5.0 15.0 0.00 0.00 0.00 47 1012.9
20260506130046 53 228 7.0 15.0 0.00 0.00 0.00 46 1012.9
20260506125515 52 249 4.0 8.0 0.00 0.00 0.00 52 1012.9
20260506125019 54 207 4.0 10.0 0.00 0.00 0.00 48 1012.9
20260506124540 54 237 7.0 16.0 0.00 0.00 0.00 43 1012.8
20260506124017 55 257 7.0 16.0 0.00 0.00 0.00 41 1012.9
20260506123517 55 257 6.0 13.0 0.00 0.00 0.00 46 1012.7
20260506123039 55 248 6.0 15.0 0.00 0.00 0.00 40 1012.8
20260506122510 55 259 8.0 15.0 0.00 0.00 0.00 41 1013.0
20260506122014 54 223 8.0 15.0 0.00 0.00 0.00 43 1012.9
20260506121531 54 223 9.0 16.0 0.00 0.00 0.00 44 1012.8
20260506121011 53 156 6.0 17.0 0.00 0.00 0.00 46 1012.8
20260506120511 53 244 5.0 12.0 0.00 0.00 0.00 47 1012.9
20260506120040 53 221 5.0 13.0 0.00 0.00 0.00 46 1012.9
20260506115509 54 229 6.0 13.0 0.00 0.00 0.00 43 1012.9
20260506115009 55 200 5.0 14.0 0.00 0.00 0.00 42 1012.8
20260506114532 54 184 7.0 13.0 0.00 0.00 0.00 42 1012.7
20260506114012 54 246 7.0 17.0 0.00 0.00 0.00 42 1012.7
20260506113509 54 150 7.0 17.0 0.00 0.00 0.00 44 1012.8
20260506113034 54 249 8.0 14.0 0.00 0.00 0.00 43 1012.8
20260506112512 55 146 7.0 16.0 0.00 0.00 0.00 42 1012.9
20260506112011 55 209 7.0 16.0 0.00 0.00 0.00 43 1012.7
20260506111531 54 180 5.0 12.0 0.00 0.00 0.00 42 1012.7
20260506111017 55 213 7.0 11.0 0.00 0.00 0.00 43 1012.7
20260506110510 55 204 4.0 12.0 0.00 0.00 0.00 41 1012.7
20260506110033 55 211 6.0 12.0 0.00 0.00 0.00 40 1012.5
20260506105510 55 202 6.0 12.0 0.00 0.00 0.00 41 1012.5
20260506105009 55 210 7.0 12.0 0.00 0.00 0.00 40 1012.5
20260506104530 55 233 7.0 13.0 0.00 0.00 0.00 40 1012.4
20260506104010 56 205 6.0 15.0 0.00 0.00 0.00 38 1012.4
20260506103511 55 205 5.0 19.0 0.00 0.00 0.00 39 1012.4
20260506103040 55 238 7.0 19.0 0.00 0.00 0.00 37 1012.4
20260506102510 55 211 8.0 13.0 0.00 0.00 0.00 39 1012.5
20260506102011 54 264 6.0 11.0 0.00 0.00 0.00 41 1012.3
20260506101530 54 236 5.0 12.0 0.00 0.00 0.00 44 1012.4
20260506101009 55 245 5.0 12.0 0.00 0.00 0.00 41 1012.4
20260506100508 54 233 7.0 11.0 0.00 0.00 0.00 40 1012.3
20260506100034 54 233 4.0 11.0 0.00 0.00 0.00 44 1012.3
20260506095509 55 153 6.0 11.0 0.00 0.00 0.00 38 1012.3
20260506095011 56 211 5.0 11.0 0.00 0.00 0.00 37 1012.2
20260506094533 55 146 7.0 13.0 0.00 0.00 0.00 36 1012.2
20260506094009 56 271 5.0 16.0 0.00 0.00 0.00 38 1012.3
20260506093509 56 254 7.0 14.0 0.00 0.00 0.00 38 1012.3
20260506093029 56 233 9.0 16.0 0.00 0.00 0.00 38 1012.5
20260506092510 56 220 6.0 15.0 0.00 0.00 0.00 37 1012.4
20260506092011 56 241 7.0 15.0 0.00 0.00 0.00 35 1012.4
20260506091532 56 188 7.0 16.0 0.00 0.00 0.00 36 1012.4
20260506091011 56 220 8.0 13.0 0.00 0.00 0.00 36 1012.4
20260506090508 56 250 4.0 15.0 0.00 0.00 0.00 38 1012.5
20260506090043 56 216 8.0 15.0 0.00 0.00 0.00 36 1012.5
20260506085512 56 232 9.0 15.0 0.00 0.00 0.00 37 1012.5
20260506085013 56 238 7.0 16.0 0.00 0.00 0.00 38 1012.6
20260506084530 56 196 6.0 16.0 0.00 0.00 0.00 37 1012.6
20260506084010 56 190 8.0 16.0 0.00 0.00 0.00 36 1012.5
20260506083512 56 236 5.0 16.0 0.00 0.00 0.00 38 1012.6
20260506083029 56 236 7.0 16.0 0.00 0.00 0.00 36 1012.5
20260506082509 56 215 6.0 13.0 0.00 0.00 0.00 37 1012.5
20260506082011 56 240 7.0 13.0 0.00 0.00 0.00 38 1012.5
20260506081537 56 198 4.0 13.0 0.00 0.00 0.00 38 1012.5
20260506081012 56 190 6.0 14.0 0.00 0.00 0.00 38 1012.5
20260506080513 56 200 7.0 14.0 0.00 0.00 0.00 38 1012.4
20260506073512 55 209 6.0 15.0 0.00 0.00 0.00 39 1012.7
20260506073034 55 170 6.0 15.0 0.00 0.00 0.00 40 1012.4
20260506072513 54 214 5.0 13.0 0.00 0.00 0.00 43 1012.4
20260506072011 54 234 6.0 13.0 0.00 0.00 0.00 45 1012.4
20260506071532 53 153 5.0 11.0 0.00 0.00 0.00 49 1012.4
20260506071010 53 267 6.0 11.0 0.00 0.00 0.00 48 1012.4
20260506070510 53 180 4.0 8.0 0.00 0.00 0.00 49 1012.5
20260506062512 56 125 2.0 11.0 0.00 0.00 0.00 43 1012.7
20260506062010 56 117 2.0 7.0 0.00 0.00 0.00 42 1012.7
20260506061546 56 180 4.0 8.0 0.00 0.00 0.00 42 1012.7
20260506061011 56 200 4.0 10.0 0.00 0.00 0.00 41 1012.8
20260506060511 57 182 5.0 10.0 0.00 0.00 0.00 41 1012.8
20260506051012 57 277 4.0 11.0 0.00 0.00 0.00 44 1012.9
20260506050520 57 237 6.0 11.0 0.00 0.00 0.00 44 1012.8
20260506045010 57 257 5.0 10.0 0.00 0.00 0.00 45 1012.8
20260506044544 57 207 6.0 11.0 0.00 0.00 0.00 45 1012.7
20260506044010 57 258 5.0 11.0 0.00 0.00 0.00 45 1012.7
20260506043510 57 194 5.0 11.0 0.00 0.00 0.00 47 1012.8
20260506043039 57 187 6.0 10.0 0.00 0.00 0.00 48 1012.7
20260506042509 57 213 5.0 9.0 0.00 0.00 0.00 48 1012.7
20260506042010 57 240 4.0 9.0 0.00 0.00 0.00 49 1012.6
20260506041533 57 198 3.0 8.0 0.00 0.00 0.00 50 1012.7
20260506041012 57 263 4.0 9.0 0.00 0.00 0.00 50 1012.6
20260506040512 57 213 4.0 9.0 0.00 0.00 0.00 50 1012.7
20260506040035 57 169 4.0 11.0 0.00 0.00 0.00 51 1012.7
20260506035513 57 192 5.0 11.0 0.00 0.00 0.00 52 1012.5
20260506035016 58 148 4.0 11.0 0.00 0.00 0.00 53 1012.4
20260506034533 58 269 4.0 9.0 0.00 0.00 0.00 49 1012.3
20260506034012 58 227 5.0 9.0 0.00 0.00 0.00 50 1012.3
20260506033512 58 212 2.0 7.0 0.00 0.00 0.00 52 1012.2
20260506033035 59 230 2.0 7.0 0.00 0.00 0.00 49 1012.2
20260506032509 59 231 2.0 7.0 0.00 0.00 0.00 51 1012.1
20260506032010 59 189 2.0 8.0 0.00 0.00 0.00 52 1012.2
20260506031542 59 194 3.0 8.0 0.00 0.00 0.00 52 1012.2
20260506031013 60 161 1.0 5.0 0.00 0.00 0.00 51 1012.2
20260506030512 60 268 2.0 5.0 0.00 0.00 0.00 46 1012.1
20260506030032 61 254 3.0 7.0 0.00 0.00 0.00 41 1012.0
20260506025516 61 261 3.0 9.0 0.00 0.00 0.00 42 1012.1